Location: *
(51.8167°N, 12.5000°E)
Time: 06:17:40
(UTC+00:00)

MOS 1 Rocket - Pass Details

Date: 16 September 2019
Orbit: 614 x 831 km, 97.4° (Epoch: 21 October)

Event Time Altitude Azimuth Distance (km) Brightness Sun altitude
Rises 21:10:04 0° 12° (NNE) 3,344 7.4 -30.5°
Reaches altitude 10° 21:12:29 10° 11° (NNE) 2,386 6.5 -30.7°
Enters shadow 21:16:24 50° 2° (N) 992 4.2 -31.0°
